Flag for Mongolia Weather past 2 weeks in Ulaanbaatar, Mongolia

30 °F

Light snow. Overcast.

Feels Like: 18 °F
Forecast: 21 / 39 °F
Wind: 17 mph from North

Location: Ulan-Bator

Current Time: Oct 7, 2015 at 8:53:50 AM

Latest Report: Oct 7, 2015 at 8:00 AM

Visibility: 2 mi

Pressure: 30.15 "Hg (25.62 "Hg at 1298m altitude)

Humidity: 86%

Dew point: 27 °F

Location of UlaanbaatarLocation

Historic Weather in Ulaanbaatar — Graph


Ulaanbaatar temperature yesterday

Maximum temperature yesterday: 68 °F (at 4:00 PM)
Minimum temperature yesterday: 27 °F (at 7:00 AM)
Average temperature yesterday: 46 °F

Past Weeks' High & Low Weather Summary

High68 °F (Oct 5, 4:00 PM)100% (Sep 30, 3:00 AM)30.27 "Hg (Sep 30, 3:00 AM)
Low21 °F (Sep 28, 5:30 AM)16% (Sep 28, 4:30 PM)29.53 "Hg (Sep 23, 3:30 PM)
Average41 °F63%29.95 "Hg
* Reported Sep 22 8:00 AM — Oct 7 7:30 AM, Ulaanbaatar, Weather by CustomWeather, © 2015

Note: Actual official high and low records may vary slightly from our data, if they occured in-between our weather recording intervals... More about our weather records


Ulaanbaatar weather history for previous 24 hours

Time TempWeatherWind HumidityBarometerVisibility
7:30 AM
Wed, Oct 7
30 °FLight snow. Overcast.15 mph86%30.12 "Hg2 mi
7:00 AM30 °FLight snow. Overcast.15 mph86%30.09 "Hg2 mi
6:30 AM30 °FLight snow. Overcast.13 mph93%30.07 "Hg3 mi
6:00 AM30 °FSnow. Overcast.17 mph93%30.04 "Hg2 mi
5:30 AM30 °FLight snow. Passing clouds.24 mph93%30.01 "Hg3 mi
5:00 AM30 °FLight snow. Passing clouds.22 mph93%29.98 "Hg4 mi
4:30 AM32 °FLight snow. Passing clouds.17 mph87%29.95 "Hg4 mi
4:00 AM34 °FPassing clouds.17 mph81%29.95 "HgN/A
3:30 AM34 °FPassing clouds.17 mph75%29.95 "HgN/A
3:00 AM34 °FPassing clouds.24 mph75%29.92 "HgN/A
2:30 AM36 °FLight rain. Passing clouds.17 mph75%29.95 "HgN/A
2:00 AM34 °FLight rain. Passing clouds.10 mph87%29.95 "HgN/A
1:00 AM36 °FPassing clouds.10 mph87%29.95 "HgN/A
12:30 AM36 °FPassing clouds.8 mph81%29.95 "HgN/A
12:00 AM37 °FPassing clouds.3 mph81%29.95 "HgN/A
11:30 PM
Tue, Oct 6
37 °FPassing clouds.8 mph81%29.95 "HgN/A
11:00 PM37 °FLight rain. Passing clouds.8 mph81%29.95 "HgN/A
10:30 PM37 °FLight rain. Passing clouds.15 mph81%29.98 "HgN/A
10:00 PM37 °FLight rain. Passing clouds.22 mph81%29.98 "HgN/A
9:30 PM41 °FSprinkles. Passing clouds.24 mph70%29.95 "HgN/A
9:00 PM43 °FSprinkles. Passing clouds.20 mph66%29.92 "HgN/A
8:30 PM45 °FPassing clouds.15 mph61%29.92 "HgN/A
8:00 PM46 °FPassing clouds.13 mph57%29.86 "HgN/A
7:30 PM46 °FPassing clouds.13 mph57%29.86 "HgN/A
7:00 PM50 °FScattered clouds.15 mph50%29.83 "HgN/A
6:30 PM54 °FScattered clouds.22 mph47%29.77 "HgN/A
6:00 PM59 °FScattered clouds.15 mph36%29.74 "HgN/A
5:30 PM63 °FPartly sunny.13 mph30%29.71 "HgN/A
5:00 PM66 °FPartly sunny.10 mph22%29.71 "HgN/A
4:30 PM66 °FPartly sunny.8 mph22%29.71 "HgN/A
4:00 PM68 °FPartly sunny.1 mph21%29.71 "HgN/A
3:30 PM66 °FPartly sunny.No wind22%29.71 "HgN/A
3:00 PM66 °FPartly sunny.No wind22%29.74 "HgN/A
2:30 PM66 °FPartly sunny.No wind22%29.74 "HgN/A
2:00 PM66 °FPartly sunny.No wind22%29.77 "HgN/A
1:30 PM63 °FPartly sunny.3 mph24%29.77 "HgN/A
12:30 PM61 °FSunny.1 mph27%29.80 "Hg10 mi
12:00 PM59 °FSunny.No wind29%29.80 "Hg10 mi
11:30 AM55 °FSunny.No wind36%29.80 "Hg10 mi
11:00 AM52 °FSunny.No wind38%29.83 "Hg10 mi
10:30 AM48 °FSunny.No wind43%29.83 "Hg10 mi
10:00 AM46 °FSunny.No wind46%29.83 "Hg10 mi
9:30 AM43 °FSunny.No wind53%29.86 "Hg10 mi
9:00 AM39 °FSunny.No wind65%29.86 "Hg10 mi
8:30 AM37 °FSunny.No wind65%29.86 "Hg10 mi
8:00 AM32 °FSunny.No wind80%29.86 "Hg10 mi
Weather by CustomWeather, © 2015

See weather overviewHow to use our weather pages